Wendover, UT

11:33 PM MST on December 03, 2016 (GMT -0700)
Wendover

Weather History for KENV - March, 2014

Change the Weather History Date:

Saturday, March 29, 2014

  Actual Average Record
Temperature  
Mean Temperature 54 °F -  
Max Temperature 66 °F 54 °F 76 °F (1943)
Min Temperature 41 °F 34 °F 16 °F (1975)
Degree Days  
Heating Degree Days 12    
Growing Degree Days 4 (Base 50)    
Moisture  
Dew Point 24 °F    
Average Humidity 33    
Maximum Humidity 49    
Minimum Humidity 18    
Precipitation  
Precipitation 0.00 in - - ()
Sea Level Pressure  
Sea Level Pressure 29.93 in    
Wind  
Wind Speed 9 mph (NNE)    
Max Wind Speed 22 mph    
Max Gust Speed 45 mph    
Visibility 10 miles    
Events      
Averages and records for this station are not official NWS values.
T = Trace of Precipitation, MM = Missing Value Source: NWS Daily Summary

Daily Weather History Graph

Daily Weather History Graph

Search for Another Location

Airport or City:

Trip Planner

Search our weather history database for the weather conditions in past years. The results will help you decide how hot, cold, wet, or windy it might be!

Date:

Astronomy

Mar. 29, 2014 Rise Set
Actual Time 7:24 AM MDT 7:57 PM MDT
Civil Twilight 6:56 AM MDT 8:25 PM MDT
Nautical Twilight 6:24 AM MDT 8:57 PM MDT
Astronomical Twilight 5:51 AM MDT 9:31 PM MDT
Moon 6:36 AM MDT (3/29) 7:07 PM MDT (3/29)
Length of Visible Light 13h 28m
Length of Day
12h 33m
Waning Crescent, 1% of the Moon is Illuminated
Mar 29
Waning Crescent
Mar 30
New
Apr 7
First Quarter
Apr 15
Full
Apr 22
Last Quarter

Hourly Weather History & Observations

Time (MDT) Temp. Windchill Dew Point Humidity Pressure Visibility Wind Dir Wind Speed Gust Speed Precip Events Conditions
12:15 AM 44.6 °F 39.2 °F 24.8 °F 46% 30.05 in 10.0 mi NE 10.4 mph - N/A   Scattered Clouds
12:35 AM 44.6 °F 40.7 °F 24.8 °F 46% 30.05 in 10.0 mi NE 6.9 mph - N/A   Overcast
12:55 AM 44.6 °F 41.4 °F 24.8 °F 46% 30.05 in 10.0 mi NNE 5.8 mph - N/A   Overcast
1:15 AM 44.6 °F 40.7 °F 24.8 °F 46% 30.04 in 10.0 mi ENE 6.9 mph - N/A   Overcast
1:35 AM 44.6 °F 42.2 °F 24.8 °F 46% 30.04 in 10.0 mi ENE 4.6 mph - N/A   Mostly Cloudy
1:55 AM 42.8 °F 39.3 °F 23.0 °F 46% 30.04 in 10.0 mi ENE 5.8 mph - N/A   Partly Cloudy
2:15 AM 42.8 °F 39.3 °F 24.8 °F 49% 30.03 in 10.0 mi NE 5.8 mph - N/A   Mostly Cloudy
2:35 AM 42.8 °F 38.0 °F 24.8 °F 49% 30.03 in 10.0 mi NE 8.1 mph - N/A   Mostly Cloudy
2:55 AM 42.8 °F 38.6 °F 23.0 °F 46% 30.03 in 10.0 mi NE 6.9 mph - N/A   Mostly Cloudy
3:15 AM 41.0 °F 35.8 °F 23.0 °F 49% 30.02 in 10.0 mi NE 8.1 mph - N/A   Mostly Cloudy
3:35 AM 42.8 °F 36.6 °F 23.0 °F 46% 30.01 in 10.0 mi NE 11.5 mph - N/A   Clear
3:55 AM 42.8 °F 38.0 °F 23.0 °F 46% 30.01 in 10.0 mi NE 8.1 mph - N/A   Clear
4:15 AM 41.0 °F 35.2 °F 23.0 °F 49% 30.00 in 10.0 mi NNE 9.2 mph - N/A   Clear
4:35 AM 42.8 °F 38.6 °F 21.2 °F 42% 29.99 in 10.0 mi NE 6.9 mph - N/A   Clear
4:55 AM 44.6 °F 40.7 °F 21.2 °F 39% 29.99 in 10.0 mi ENE 6.9 mph - N/A   Clear
5:15 AM 44.6 °F 43.1 °F 21.2 °F 39% 29.99 in 10.0 mi East 3.5 mph - N/A   Clear
5:35 AM 42.8 °F 37.5 °F 21.2 °F 42% 29.98 in 10.0 mi NE 9.2 mph - N/A   Clear
5:55 AM 42.8 °F 41.1 °F 21.2 °F 42% 29.98 in 10.0 mi ENE 3.5 mph - N/A   Clear
6:15 AM 44.6 °F 43.1 °F 21.2 °F 39% 29.99 in 10.0 mi South 3.5 mph - N/A   Clear
6:35 AM 44.6 °F 39.2 °F 19.4 °F 37% 29.99 in 10.0 mi SSE 10.4 mph - N/A   Clear
6:55 AM 44.6 °F 39.2 °F 19.4 °F 37% 29.99 in 10.0 mi SSE 10.4 mph - N/A   Clear
7:15 AM 44.6 °F 40.2 °F 19.4 °F 37% 30.00 in 10.0 mi SSE 8.1 mph - N/A   Clear
7:35 AM 44.6 °F 39.7 °F 19.4 °F 37% 30.00 in 10.0 mi South 9.2 mph - N/A   Clear
7:55 AM 44.6 °F 41.4 °F 19.4 °F 37% 30.01 in 10.0 mi SSW 5.8 mph - N/A   Clear
8:15 AM 46.4 °F 45.2 °F 21.2 °F 37% 30.01 in 10.0 mi WSW 3.5 mph - N/A   Clear
8:35 AM 48.2 °F - 21.2 °F 34% 30.02 in 10.0 mi West 5.8 mph - N/A   Clear
8:55 AM 48.2 °F - 21.2 °F 34% 30.02 in 10.0 mi Calm Calm - N/A   Clear
9:15 AM 48.2 °F - 23.0 °F 37% 30.02 in 10.0 mi Calm Calm - N/A   Clear
9:35 AM 51.8 °F - 21.2 °F 30% 30.01 in 10.0 mi ESE 4.6 mph - N/A   Clear
9:55 AM 51.8 °F - 23.0 °F 33% 30.02 in 10.0 mi Calm Calm - N/A   Clear
10:15 AM 53.6 °F - 23.0 °F 30% 30.01 in 10.0 mi ESE 3.5 mph - N/A   Clear
10:35 AM 55.4 °F - 23.0 °F 29% 30.01 in 10.0 mi ENE 5.8 mph - N/A   Clear
10:55 AM 55.4 °F - 24.8 °F 31% 30.01 in 10.0 mi NE 8.1 mph - N/A   Clear
11:15 AM 55.4 °F - 24.8 °F 31% 30.01 in 10.0 mi NE 11.5 mph - N/A   Clear
11:35 AM 55.4 °F - 24.8 °F 31% 30.00 in 10.0 mi NE 11.5 mph - N/A   Clear
11:55 AM 55.4 °F - 24.8 °F 31% 29.99 in 10.0 mi NE 10.4 mph - N/A   Clear
12:15 PM 57.2 °F - 24.8 °F 29% 29.98 in 10.0 mi ENE 9.2 mph - N/A   Clear
12:35 PM 59.0 °F - 24.8 °F 27% 29.98 in 10.0 mi ENE 9.2 mph - N/A   Partly Cloudy
12:55 PM 60.8 °F - 24.8 °F 25% 29.97 in 10.0 mi ENE 8.1 mph - N/A   Partly Cloudy
1:15 PM 62.6 °F - 24.8 °F 24% 29.96 in 10.0 mi ENE 8.1 mph - N/A   Clear
1:35 PM 60.8 °F - 24.8 °F 25% 29.95 in 10.0 mi NE 6.9 mph - N/A   Partly Cloudy
1:55 PM 60.8 °F - 23.0 °F 23% 29.93 in 10.0 mi NE 4.6 mph - N/A   Scattered Clouds
2:15 PM 62.6 °F - 24.8 °F 24% 29.92 in 10.0 mi East 4.6 mph - N/A   Scattered Clouds
2:35 PM 64.4 °F - 23.0 °F 21% 29.90 in 10.0 mi East 5.8 mph - N/A   Clear
2:55 PM 64.4 °F - 21.2 °F 19% 29.89 in 10.0 mi NNE 3.5 mph - N/A   Clear
3:15 PM 64.4 °F - 21.2 °F 19% 29.88 in 10.0 mi SSW 9.2 mph - N/A   Scattered Clouds
3:35 PM 64.4 °F - 23.0 °F 21% 29.87 in 10.0 mi West 12.7 mph 18.4 mph N/A   Scattered Clouds
3:55 PM 64.4 °F - 23.0 °F 21% 29.86 in 10.0 mi West 13.8 mph 19.6 mph N/A   Partly Cloudy
4:15 PM 64.4 °F - 23.0 °F 21% 29.85 in 10.0 mi SW 17.3 mph 20.7 mph N/A   Scattered Clouds
4:35 PM 66.2 °F - 21.2 °F 18% 29.84 in 10.0 mi SSW 13.8 mph 21.9 mph N/A   Scattered Clouds
4:55 PM 66.2 °F - 24.8 °F 21% 29.84 in 10.0 mi West 15.0 mph 19.6 mph N/A   Clear
5:15 PM 66.2 °F - 21.2 °F 18% 29.83 in 10.0 mi SW 12.7 mph 25.3 mph N/A   Clear
5:35 PM 66.2 °F - 21.2 °F 18% 29.81 in 10.0 mi SSW 17.3 mph - N/A   Mostly Cloudy
5:55 PM 64.4 °F - 21.2 °F 19% 29.80 in 10.0 mi WSW 12.7 mph - N/A   Mostly Cloudy
6:15 PM 64.4 °F - 21.2 °F 19% 29.80 in 10.0 mi SSW 16.1 mph - N/A   Mostly Cloudy
6:35 PM 62.6 °F - 24.8 °F 24% 29.80 in 10.0 mi WNW 17.3 mph 44.9 mph N/A   Mostly Cloudy
6:55 PM 62.6 °F - 24.8 °F 24% 29.81 in 10.0 mi WNW 20.7 mph - N/A   Partly Cloudy
7:15 PM 60.8 °F - 26.6 °F 27% 29.80 in 10.0 mi WNW 17.3 mph - N/A   Partly Cloudy
7:35 PM 59.0 °F - 26.6 °F 29% 29.80 in 10.0 mi WNW 16.1 mph 19.6 mph N/A   Clear
7:55 PM 59.0 °F - 26.6 °F 29% 29.80 in 10.0 mi WNW 18.4 mph - N/A   Partly Cloudy
8:15 PM 57.2 °F - 28.4 °F 33% 29.80 in 10.0 mi NW 12.7 mph - N/A   Scattered Clouds
8:35 PM 57.2 °F - 28.4 °F 33% 29.80 in 10.0 mi NW 16.1 mph - N/A   Mostly Cloudy
8:55 PM 57.2 °F - 28.4 °F 33% 29.80 in 10.0 mi NW 21.9 mph 26.5 mph N/A   Partly Cloudy
9:15 PM 57.2 °F - 28.4 °F 33% 29.80 in 10.0 mi WNW 21.9 mph 26.5 mph N/A   Clear
9:35 PM 55.4 °F - 28.4 °F 36% 29.79 in 10.0 mi WNW 17.3 mph 23.0 mph N/A   Clear
9:55 PM 55.4 °F - 28.4 °F 36% 29.78 in 10.0 mi WNW 15.0 mph 20.7 mph N/A   Clear
10:15 PM 55.4 °F - 28.4 °F 36% 29.77 in 10.0 mi NW 18.4 mph - N/A   Clear
10:35 PM 55.4 °F - 28.4 °F 36% 29.77 in 10.0 mi NW 15.0 mph - N/A   Clear
10:55 PM 55.4 °F - 28.4 °F 36% 29.78 in 10.0 mi West 8.1 mph - N/A   Partly Cloudy
11:15 PM 53.6 °F - 28.4 °F 38% 29.77 in 10.0 mi West 5.8 mph - N/A   Scattered Clouds
11:35 PM 53.6 °F - 28.4 °F 38% 29.76 in 10.0 mi West 4.6 mph - N/A   Mostly Cloudy
11:55 PM 51.8 °F - 28.4 °F 41% 29.76 in 10.0 mi South 4.6 mph - N/A   Partly Cloudy